sat.trackr.live / text

‹ back to catalog

STARLINK-33782

NORAD 64332 · 2025-124R

PAYLOAD ACTIVE UNKNOWN

§ Identity

Operator
Country
US
Launch date
2025-06-10
Launch site
AFETR
Launch vehicle
Mass (kg)
RCS (m²)

Purposes: comms

External: N2YO · Heavens-Above · Gunter

§ Orbital elements

Epoch: 2026-09-20T22:42:17.221824Z

Period
94.27 min
Inclination
43.0039°
Eccentricity
0.0001985
Mean motion
15.27596660 rev/d
Perigee alt
481.6 km
Apogee alt
484.4 km
Semi-major
6,861.1 km
B*
3.6598e-4
RAAN
98.8851°
Arg perigee
256.9535°
Mean anomaly
103.1095°
Rev number
7,164

§ Raw data

STARLINK-337821 64332U 25124R   26263.94603266  .00009827  00000+0  36598-3 0  99962 64332  43.0039  98.8851 0001985 256.9535 103.1095 15.27596660 71640

JSON: /api/v1/satellites/64332 · /tle

For live sub-satellite position, see the globe view (requires WebGL).

§ Visibility from observer

Set your observer location to see the next 7 days of passes ≥ 10°. The values pass through the URL so the page stays shareable.

No JS? Fill the form by hand. The geolocation button needs JavaScript.